This is the latest recevied weather packets stored in our database for station/object ON5MM-5. If no packets are shown the sender has not sent any weather packets the latest 10 day(s).
| Time | Temp. | Humidity | Pressure | Rain* | Wind** | Luminosity | Snow |
|---|---|---|---|---|---|---|---|
| 1777296603 | 20° C | 31% | 1023.1 hPa | 0 mm | 1.79 m/s, ° | - | - |
| 1777296302 | 19.44° C | 31% | 1023.1 hPa | 0 mm | 1.34 m/s, ° | - | - |
| 1777296003 | 19.44° C | 33% | 1023.1 hPa | 0 mm | 0.45 m/s, ° | - | - |
| 1777295703 | 18.89° C | 31% | 1023.1 hPa | 0 mm | 1.79 m/s, ° | - | - |
| 1777295403 | 18.89° C | 30% | 1023.1 hPa | 0 mm | 1.34 m/s, ° | - | - |
| 1777295102 | 18.89° C | 31% | 1023.2 hPa | 0 mm | 0.89 m/s, ° | - | - |
| 1777294802 | 18.89° C | 33% | 1023.2 hPa | 0 mm | 1.34 m/s, ° | - | - |
| 1777294503 | 18.89° C | 32% | 1023.3 hPa | 0 mm | 1.79 m/s, ° | - | - |
| 1777294202 | 18.89° C | 34% | 1023.4 hPa | 0 mm | 1.34 m/s, ° | - | - |
| 1777293903 | 18.89° C | 33% | 1023.4 hPa | 0 mm | 1.79 m/s, ° | - | - |
| 1777293602 | 18.89° C | 34% | 1023.4 hPa | 0 mm | 0.89 m/s, ° | - | - |
| 1777293302 | 18.33° C | 36% | 1023.5 hPa | 0 mm | 1.34 m/s, ° | - | - |
| 1777293002 | 18.33° C | 36% | 1023.5 hPa | 0 mm | 0.89 m/s, ° | - | - |
| 1777292702 | 17.78° C | 35% | 1023.6 hPa | 0 mm | 1.79 m/s, ° | - | - |
| 1777292403 | 18.33° C | 33% | 1023.6 hPa | 0 mm | 1.34 m/s, ° | - | - |
| 1777292102 | 18.89° C | 37% | 1023.7 hPa | 0 mm | 1.34 m/s, ° | - | - |
| 1777291803 | 18.89° C | 36% | 1023.7 hPa | 0 mm | 1.34 m/s, ° | - | - |
| 1777291502 | 18.33° C | 36% | 1023.6 hPa | 0 mm | 1.34 m/s, ° | - | - |
| 1777291203 | 18.33° C | 37% | 1023.7 hPa | 0 mm | 0.89 m/s, ° | - | - |
| 1777290903 | 17.78° C | 36% | 1023.7 hPa | 0 mm | 1.79 m/s, ° | - | - |
| 1777290603 | 17.78° C | 36% | 1023.8 hPa | 0 mm | 1.34 m/s, ° | - | - |
| 1777290302 | 17.78° C | 37% | 1023.8 hPa | 0 mm | 1.34 m/s, ° | - | - |
| 1777290002 | 17.78° C | 37% | 1023.8 hPa | 0 mm | 1.34 m/s, ° | - | - |
| 1777289703 | 17.78° C | 37% | 1023.8 hPa | 0 mm | 1.79 m/s, ° | - | - |
| 1777289403 | 17.78° C | 37% | 1023.9 hPa | 0 mm | 0.89 m/s, ° | - | - |
* Rain latest hour (hover to see other rain measurements)
** Current wind speed in m/s (hover to see current wind gust speed)